Stanton, MN

11:31 AM CDT on April 24, 2018 (GMT -0500)
Stanton

Weather History for KSYN - August, 2013

Change the Weather History Date:

Friday, August 2, 2013

  Actual Average (KLVN) Record (KLVN)
Temperature  
Mean Temperature 66 °F -  
Max Temperature 77 °F 81 °F 99 °F (1988)
Min Temperature 54 °F 59 °F 44 °F (1971)
Growing Degree Days 16 (Base 50)    
Moisture  
Dew Point 54 °F    
Average Humidity 69    
Maximum Humidity 92    
Minimum Humidity 39    
Precipitation  
Precipitation 0.00 in - - ()
Sea Level Pressure  
Sea Level Pressure 29.93 in    
Wind  
Wind Speed 3 mph (NNW)    
Max Wind Speed 10 mph    
Max Gust Speed -    
Visibility 10 miles    
Events      
Averages and records for this station are not official NWS values.
T = Trace of Precipitation, MM = Missing Value Source: NWS Daily Summary

Daily Weather History Graph

Daily Weather History Graph

Search for Another Location

Airport or City:

Astronomy

Aug. 02, 2013 Rise Set
Actual Time 6:00 AM CDT 8:35 PM CDT
Civil Twilight 5:27 AM CDT 9:08 PM CDT
Nautical Twilight 4:45 AM CDT 9:50 PM CDT
Astronomical Twilight 3:57 AM CDT 10:37 PM CDT
Moon 2:20 AM CDT (8/2) 5:35 PM CDT (8/2)
Length of Visible Light 15h 41m
Length of Day
14h 35m
Waning Crescent, 15% of the Moon is Illuminated
Aug 2
Waning Crescent
Aug 6
New
Aug 14
First Quarter
Aug 20
Full
Aug 28
Last Quarter

Hourly Weather History & Observations

Time (CDT) Temp. Dew Point Humidity Pressure Visibility Wind Dir Wind Speed Gust Speed Precip Events Conditions
12:13 AM 60.8 °F 57.9 °F 90% 29.86 in 10.0 mi NW 3.5 mph - N/A   Scattered Clouds
12:32 AM 61.7 °F 58.6 °F 90% 29.85 in 10.0 mi Calm Calm - N/A   Mostly Cloudy
12:53 AM 60.8 °F 57.9 °F 90% 29.85 in 10.0 mi Calm Calm - N/A   Scattered Clouds
1:13 AM 60.3 °F 57.4 °F 90% 29.85 in 10.0 mi Calm Calm - N/A   Clear
1:32 AM 58.5 °F 55.6 °F 90% 29.85 in 10.0 mi Calm Calm - N/A   Clear
1:53 AM 58.1 °F 55.6 °F 91% 29.86 in 10.0 mi South 4.6 mph - N/A   Clear
2:13 AM 58.3 °F 55.9 °F 92% 29.88 in 10.0 mi Calm Calm - N/A   Clear
2:32 AM 59.0 °F 56.3 °F 91% 29.88 in 10.0 mi Calm Calm - N/A   Clear
2:53 AM 58.6 °F 55.9 °F 91% 29.87 in 10.0 mi Calm Calm - N/A   Clear
3:13 AM 57.9 °F 55.0 °F 90% 29.86 in 10.0 mi Calm Calm - N/A   Clear
3:32 AM 57.7 °F 55.4 °F 92% 29.86 in 10.0 mi South 4.6 mph - N/A   Clear
3:53 AM 55.6 °F 53.1 °F 91% 29.87 in 10.0 mi South 3.5 mph - N/A   Clear
4:12 AM 55.6 °F 53.4 °F 92% 29.88 in 10.0 mi Calm Calm - N/A   Clear
4:32 AM 55.8 °F 53.6 °F 92% 29.88 in 10.0 mi Calm Calm - N/A   Clear
4:53 AM 56.5 °F 53.6 °F 90% 29.88 in 10.0 mi South 3.5 mph - N/A   Clear
5:12 AM 55.6 °F 53.2 °F 92% 29.88 in 10.0 mi SSW 3.5 mph - N/A   Clear
5:33 AM 54.5 °F 52.2 °F 92% 29.89 in 10.0 mi Calm Calm - N/A   Clear
5:52 AM 54.5 °F 52.3 °F 92% 29.89 in 10.0 mi Calm Calm - N/A   Clear
6:13 AM 54.7 °F 52.3 °F 92% 29.90 in 10.0 mi Calm Calm - N/A   Clear
6:33 AM 55.2 °F 52.5 °F 91% 29.89 in 10.0 mi Calm Calm - N/A   Clear
6:52 AM 56.5 °F 53.6 °F 90% 29.90 in 10.0 mi Calm Calm - N/A   Clear
7:13 AM 58.3 °F 55.9 °F 92% 29.90 in 10.0 mi Calm Calm - N/A   Clear
7:33 AM 60.4 °F 56.7 °F 87% 29.91 in 10.0 mi Calm Calm - N/A   Clear
7:52 AM 61.9 °F 56.8 °F 84% 29.92 in 10.0 mi SSW 3.5 mph - N/A   Clear
8:13 AM 63.7 °F 57.6 °F 80% 29.93 in 10.0 mi Calm Calm - N/A   Clear
8:32 AM 65.5 °F 57.4 °F 75% 29.93 in 10.0 mi Calm Calm - N/A   Clear
8:53 AM 67.5 °F 57.9 °F 71% 29.92 in 10.0 mi NNW 3.5 mph - N/A   Clear
9:12 AM 68.5 °F 57.7 °F 68% 29.92 in 10.0 mi NNW 4.6 mph - N/A   Clear
9:32 AM 70.2 °F 57.9 °F 65% 29.93 in 10.0 mi NW 6.9 mph - N/A   Clear
9:52 AM 71.1 °F 57.0 °F 61% 29.93 in 10.0 mi North 8.1 mph - N/A   Clear
10:13 AM 71.1 °F 54.7 °F 56% 29.93 in 10.0 mi North 8.1 mph - N/A   Clear
10:32 AM 72.5 °F 54.7 °F 53% 29.93 in 10.0 mi North 9.2 mph - N/A   Clear
10:53 AM 72.9 °F 55.2 °F 54% 29.92 in 10.0 mi North 8.1 mph - N/A   Clear
11:13 AM 72.9 °F 55.0 °F 53% 29.93 in 10.0 mi North 9.2 mph - N/A   Clear
11:32 AM 73.0 °F 55.2 °F 53% 29.93 in 10.0 mi NE 8.1 mph - N/A   Clear
11:53 AM 73.6 °F 55.0 °F 52% 29.93 in 10.0 mi North 9.2 mph - N/A   Clear
12:12 PM 74.5 °F 53.4 °F 48% 29.93 in 10.0 mi NNE 10.4 mph - N/A   Clear
12:33 PM 75.2 °F 52.5 °F 45% 29.93 in 10.0 mi North 8.1 mph - N/A   Clear
12:52 PM 75.0 °F 53.6 °F 47% 29.93 in 10.0 mi North 9.2 mph - N/A   Clear
1:13 PM 74.7 °F 53.1 °F 47% 29.93 in 10.0 mi NNE 8.1 mph - N/A   Clear
1:32 PM 75.2 °F 52.5 °F 45% 29.94 in 10.0 mi NNW 8.1 mph - N/A   Clear
1:52 PM 76.1 °F 52.2 °F 43% 29.95 in 10.0 mi NNW 9.2 mph - N/A   Clear
2:13 PM 75.4 °F 50.9 °F 42% 29.95 in 10.0 mi NNW 4.6 mph - N/A   Scattered Clouds
2:32 PM 75.7 °F 52.0 °F 43% 29.95 in 10.0 mi NNW 10.4 mph - N/A   Scattered Clouds
2:52 PM 77.0 °F 52.9 °F 43% 29.95 in 10.0 mi NNW 4.6 mph - N/A   Scattered Clouds
3:13 PM 76.1 °F 52.2 °F 43% 29.95 in 10.0 mi NNW 5.8 mph - N/A   Mostly Cloudy
3:32 PM 76.3 °F 51.8 °F 42% 29.95 in 10.0 mi NNW 8.1 mph - N/A   Scattered Clouds
3:52 PM 75.7 °F 48.9 °F 39% 29.95 in 10.0 mi North 5.8 mph - N/A   Clear
4:13 PM 75.4 °F 52.3 °F 44% 29.95 in 10.0 mi NW 5.8 mph - N/A   Clear
4:32 PM 76.1 °F 51.8 °F 43% 29.95 in 10.0 mi WNW 6.9 mph - N/A   Scattered Clouds
4:52 PM 74.3 °F 52.7 °F 47% 29.95 in 10.0 mi WNW 8.1 mph - N/A   Scattered Clouds
5:13 PM 74.1 °F 52.2 °F 46% 29.95 in 10.0 mi NW 6.9 mph - N/A   Scattered Clouds
5:32 PM 74.5 °F 52.2 °F 46% 29.95 in 10.0 mi NW 6.9 mph - N/A   Clear
5:52 PM 75.0 °F 51.3 °F 43% 29.96 in 10.0 mi NW 6.9 mph - N/A   Clear
6:13 PM 74.3 °F 51.8 °F 45% 29.95 in 10.0 mi NW 8.1 mph - N/A   Clear
6:32 PM 74.8 °F 51.4 °F 44% 29.95 in 10.0 mi NW 8.1 mph - N/A   Clear
6:52 PM 74.3 °F 50.4 °F 43% 29.97 in 10.0 mi NW 10.4 mph - N/A   Clear
7:13 PM 73.2 °F 51.4 °F 46% 29.97 in 10.0 mi North 4.6 mph - N/A   Scattered Clouds
7:32 PM 70.2 °F 53.4 °F 55% 29.98 in 10.0 mi NNW 3.5 mph - N/A   Clear
7:52 PM 70.2 °F 53.4 °F 55% 29.98 in 10.0 mi North 4.6 mph - N/A   Clear
8:13 PM 67.6 °F 53.8 °F 61% 29.98 in 10.0 mi North 3.5 mph - N/A   Clear
8:32 PM 65.7 °F 54.3 °F 67% 29.98 in 10.0 mi Calm Calm - N/A   Clear
8:53 PM 63.0 °F 55.2 °F 76% 29.99 in 10.0 mi Calm Calm - N/A   Clear
9:12 PM 61.5 °F 55.0 °F 79% 30.00 in 10.0 mi Calm Calm - N/A   Clear
9:33 PM 59.9 °F 54.0 °F 81% 30.01 in 10.0 mi Calm Calm - N/A   Clear
9:53 PM 58.5 °F 54.0 °F 85% 30.02 in 10.0 mi Calm Calm - N/A   Scattered Clouds
10:12 PM 58.6 °F 54.0 °F 84% 30.02 in 10.0 mi Calm Calm - N/A   Mostly Cloudy
10:33 PM 57.7 °F 53.2 °F 85% 30.03 in 10.0 mi Calm Calm - N/A   Scattered Clouds
10:52 PM 56.7 °F 53.1 °F 88% 30.03 in 10.0 mi Calm Calm - N/A   Clear
11:13 PM 56.3 °F 52.9 °F 88% 30.04 in 10.0 mi Calm Calm - N/A   Clear
11:32 PM 55.4 °F 52.2 °F 89% 30.04 in 10.0 mi South 3.5 mph - N/A   Clear
11:53 PM 54.5 °F 51.4 °F 89% 30.04 in 10.0 mi Calm Calm - N/A   Clear